Time,TemperatureF,DewpointF,PressureIn,WindDirection,WindDirectionDegrees,WindSpeedMPH,WindSpeedGustMPH,Humidity,HourlyPrecipIn,Conditions,Clouds,dailyrainin,SoftwareType,DateUTC
2013-10-31 00:00:00,39.7,25.7,30.05,SSE,152,0.0,0.0,57,0.00,,,0.00,Wunderground v.1.15,2013-10-31 07:00:00,
2013-10-31 00:10:00,39.6,25.6,30.05,SSE,152,0.0,0.0,57,0.00,,,0.00,Wunderground v.1.15,2013-10-31 07:10:00,
2013-10-31 00:20:00,38.7,24.3,30.05,SSE,152,0.0,0.0,56,0.00,,,0.00,Wunderground v.1.15,2013-10-31 07:20:00,
2013-10-31 00:30:00,38.7,26.0,30.06,SSE,153,0.0,0.0,60,0.00,,,0.00,Wunderground v.1.15,2013-10-31 07:30:00,
2013-10-31 00:40:00,38.7,25.2,30.06,SSE,152,0.0,0.0,58,0.00,,,0.00,Wunderground v.1.15,2013-10-31 07:40:00,
2013-10-31 00:50:00,37.9,25.6,30.06,SSE,153,0.0,0.0,61,0.00,,,0.00,Wunderground v.1.15,2013-10-31 07:50:00,
2013-10-31 01:00:00,39.0,27.8,30.06,SSE,153,0.0,0.0,64,0.00,,,0.00,Wunderground v.1.15,2013-10-31 08:00:00,
2013-10-31 01:10:00,40.4,27.2,30.06,SSE,152,0.0,0.0,59,0.00,,,0.00,Wunderground v.1.15,2013-10-31 08:10:00,
2013-10-31 01:20:00,39.5,24.2,30.06,SSE,153,0.0,0.0,54,0.00,,,0.00,Wunderground v.1.15,2013-10-31 08:20:00,
2013-10-31 01:30:00,37.9,24.4,30.07,SSE,152,0.0,0.0,58,0.00,,,0.00,Wunderground v.1.15,2013-10-31 08:30:00,
2013-10-31 01:40:00,37.4,26.3,30.07,SSE,153,0.0,0.0,64,0.00,,,0.00,Wunderground v.1.15,2013-10-31 08:40:00,
2013-10-31 01:45:00,38.4,25.3,30.07,SSE,152,0.0,0.0,59,0.00,,,0.00,Wunderground v.1.15,2013-10-31 08:45:00,
2013-10-31 01:55:00,38.2,25.5,30.07,SSE,153,0.0,0.0,60,0.00,,,0.00,Wunderground v.1.15,2013-10-31 08:55:00,
2013-10-31 02:00:00,38.5,27.0,30.07,SSE,153,0.0,0.0,63,0.00,,,0.00,Wunderground v.1.15,2013-10-31 09:00:00,
2013-10-31 02:10:00,37.6,24.6,30.07,SSE,152,0.0,0.0,59,0.00,,,0.00,Wunderground v.1.15,2013-10-31 09:10:00,
2013-10-31 02:20:00,36.8,23.4,30.07,SSE,152,0.0,0.0,58,0.00,,,0.00,Wunderground v.1.15,2013-10-31 09:20:00,
2013-10-31 02:30:00,35.5,23.4,30.07,SSE,152,0.0,0.0,61,0.00,,,0.00,Wunderground v.1.15,2013-10-31 09:30:00,
2013-10-31 02:40:00,34.9,23.9,30.08,SSE,152,0.0,0.0,64,0.00,,,0.00,Wunderground v.1.15,2013-10-31 09:40:00,
2013-10-31 02:50:00,34.8,25.0,30.08,SSE,152,0.0,0.0,67,0.00,,,0.00,Wunderground v.1.15,2013-10-31 09:50:00,
2013-10-31 03:00:00,35.4,24.0,30.08,SSE,152,0.0,0.0,63,0.00,,,0.00,Wunderground v.1.15,2013-10-31 10:00:00,
2013-10-31 03:10:00,34.9,24.3,30.08,SSE,152,0.0,0.0,65,0.00,,,0.00,Wunderground v.1.15,2013-10-31 10:10:00,
2013-10-31 03:15:00,36.1,24.3,30.08,SSE,152,0.0,1.0,62,0.00,,,0.00,Wunderground v.1.15,2013-10-31 10:15:00,
2013-10-31 03:25:00,34.7,24.1,30.08,SSE,157,0.0,0.0,65,0.00,,,0.00,Wunderground v.1.15,2013-10-31 10:25:00,
2013-10-31 03:30:00,34.6,24.4,30.08,SSE,156,0.0,0.0,66,0.00,,,0.00,Wunderground v.1.15,2013-10-31 10:30:00,
2013-10-31 03:35:00,34.3,24.1,30.08,SSE,156,0.0,0.0,66,0.00,,,0.00,Wunderground v.1.15,2013-10-31 10:35:00,
2013-10-31 03:45:00,34.6,24.4,30.08,SSE,156,0.0,0.0,66,0.00,,,0.00,Wunderground v.1.15,2013-10-31 10:45:00,
2013-10-31 03:55:00,34.3,23.7,30.08,SSE,156,0.0,0.0,65,0.00,,,0.00,Wunderground v.1.15,2013-10-31 10:55:00,
2013-10-31 04:00:00,34.4,23.8,30.08,SSE,156,0.0,0.0,65,0.00,,,0.00,Wunderground v.1.15,2013-10-31 11:00:00,
2013-10-31 04:10:00,34.3,23.4,30.08,SSE,156,0.0,0.0,64,0.00,,,0.00,Wunderground v.1.15,2013-10-31 11:10:00,
2013-10-31 04:20:00,33.4,23.3,30.08,SSE,156,0.0,0.0,66,0.00,,,0.00,Wunderground v.1.15,2013-10-31 11:20:00,
2013-10-31 04:30:00,34.3,25.9,30.09,SSE,157,0.0,0.0,71,0.00,,,0.00,Wunderground v.1.15,2013-10-31 11:30:00,
2013-10-31 04:40:00,35.3,25.8,30.09,SSE,156,0.0,0.0,68,0.00,,,0.00,Wunderground v.1.15,2013-10-31 11:40:00,
2013-10-31 04:45:00,35.3,25.8,30.09,SSE,156,0.0,0.0,68,0.00,,,0.00,Wunderground v.1.15,2013-10-31 11:45:00,
2013-10-31 04:55:00,34.5,23.6,30.09,SSE,156,0.0,1.0,64,0.00,,,0.00,Wunderground v.1.15,2013-10-31 11:55:00,
2013-10-31 05:00:00,33.4,23.6,30.09,SSE,156,1.0,2.0,67,0.00,,,0.00,Wunderground v.1.15,2013-10-31 12:00:00,
2013-10-31 05:10:00,33.7,24.6,30.09,SSE,156,1.0,1.0,69,0.00,,,0.00,Wunderground v.1.15,2013-10-31 12:10:00,
2013-10-31 05:20:00,34.3,24.1,30.09,SSE,156,0.0,0.0,66,0.00,,,0.00,Wunderground v.1.15,2013-10-31 12:20:00,
2013-10-31 05:30:00,33.0,22.5,30.09,SSE,157,0.0,0.0,65,0.00,,,0.00,Wunderground v.1.15,2013-10-31 12:30:00,
2013-10-31 05:40:00,33.5,23.7,30.10,SSE,156,0.0,1.0,67,0.00,,,0.00,Wunderground v.1.15,2013-10-31 12:40:00,
2013-10-31 05:50:00,32.5,22.8,30.10,SSE,157,0.0,0.0,67,0.00,,,0.00,Wunderground v.1.15,2013-10-31 12:50:00,
2013-10-31 06:00:00,32.0,22.3,30.10,SSE,156,0.0,0.0,67,0.00,,,0.00,Wunderground v.1.15,2013-10-31 13:00:00,
2013-10-31 06:10:00,31.5,23.5,30.11,SSE,156,0.0,0.0,72,0.00,,,0.00,Wunderground v.1.15,2013-10-31 13:10:00,
2013-10-31 06:15:00,32.2,23.8,30.11,SSE,156,1.0,1.0,71,0.00,,,0.00,Wunderground v.1.15,2013-10-31 13:15:00,
2013-10-31 06:25:00,32.9,24.5,30.11,SSE,156,0.0,1.0,71,0.00,,,0.00,Wunderground v.1.15,2013-10-31 13:25:00,
2013-10-31 06:35:00,32.2,22.1,30.11,SSE,157,0.0,0.0,66,0.00,,,0.00,Wunderground v.1.15,2013-10-31 13:35:00,
2013-10-31 06:45:00,31.7,23.0,30.11,SSE,155,0.0,0.0,70,0.00,,,0.00,Wunderground v.1.15,2013-10-31 13:45:00,
2013-10-31 06:50:00,31.9,22.5,30.12,SSE,155,0.0,0.0,68,0.00,,,0.00,Wunderground v.1.15,2013-10-31 13:50:00,
2013-10-31 07:00:00,31.6,22.2,30.12,SSE,155,0.0,0.0,68,0.00,,,0.00,Wunderground v.1.15,2013-10-31 14:00:00,
2013-10-31 07:10:00,32.1,23.8,30.12,SSE,155,0.0,1.0,71,0.00,,,0.00,Wunderground v.1.15,2013-10-31 14:10:00,
2013-10-31 07:20:00,34.3,25.2,30.12,SSE,155,0.0,0.0,69,0.00,,,0.00,Wunderground v.1.15,2013-10-31 14:20:00,
2013-10-31 07:30:00,37.8,26.7,30.13,SSE,155,0.0,0.0,64,0.00,,,0.00,Wunderground v.1.15,2013-10-31 14:30:00,
2013-10-31 07:35:00,39.4,27.1,30.13,SSE,155,0.0,0.0,61,0.00,,,0.00,Wunderground v.1.15,2013-10-31 14:35:00,
2013-10-31 07:45:00,42.3,28.1,30.13,SSE,155,0.0,1.0,57,0.00,,,0.00,Wunderground v.1.15,2013-10-31 14:45:00,
2013-10-31 07:55:00,46.8,29.1,30.13,SSE,155,0.0,1.0,50,0.00,,,0.00,Wunderground v.1.15,2013-10-31 14:55:00,
2013-10-31 08:00:00,48.2,28.9,30.13,SSE,155,0.0,0.0,47,0.00,,,0.00,Wunderground v.1.15,2013-10-31 15:00:00,
2013-10-31 08:10:00,48.7,28.8,30.14,East,96,1.0,2.0,46,0.00,,,0.00,Wunderground v.1.15,2013-10-31 15:10:00,
2013-10-31 08:20:00,49.2,29.3,30.14,ESE,108,2.0,2.0,46,0.00,,,0.00,Wunderground v.1.15,2013-10-31 15:20:00,
2013-10-31 08:30:00,50.6,29.5,30.15,ENE,72,2.0,3.0,44,0.00,,,0.00,Wunderground v.1.15,2013-10-31 15:30:00,
2013-10-31 08:40:00,52.2,29.2,30.15,ESE,122,1.0,1.0,41,0.00,,,0.00,Wunderground v.1.15,2013-10-31 15:40:00,
2013-10-31 08:50:00,53.1,28.8,30.15,SE,132,1.0,1.0,39,0.00,,,0.00,Wunderground v.1.15,2013-10-31 15:50:00,
2013-10-31 09:00:00,55.0,28.5,30.15,SE,128,1.0,1.0,36,0.00,,,0.00,Wunderground v.1.15,2013-10-31 16:00:00,
2013-10-31 09:10:00,56.3,27.5,30.15,SSE,167,1.0,2.0,33,0.00,,,0.00,Wunderground v.1.15,2013-10-31 16:10:00,
2013-10-31 09:20:00,57.1,26.7,30.15,South,188,1.0,2.0,31,0.00,,,0.00,Wunderground v.1.15,2013-10-31 16:20:00,
2013-10-31 09:30:00,58.4,27.9,30.14,South,180,1.0,1.0,31,0.00,,,0.00,Wunderground v.1.15,2013-10-31 16:30:00,
2013-10-31 09:35:00,59.2,27.7,30.14,East,98,1.0,1.0,30,0.00,,,0.00,Wunderground v.1.15,2013-10-31 16:35:00,
2013-10-31 09:45:00,60.4,28.8,30.14,SE,132,1.0,1.0,30,0.00,,,0.00,Wunderground v.1.15,2013-10-31 16:45:00,
2013-10-31 09:50:00,60.9,29.2,30.14,NE,46,1.0,4.0,30,0.00,,,0.00,Wunderground v.1.15,2013-10-31 16:50:00,
2013-10-31 10:00:00,61.6,29.0,30.14,East,99,2.0,2.0,29,0.00,,,0.00,Wunderground v.1.15,2013-10-31 17:00:00,
2013-10-31 10:10:00,62.3,29.6,30.14,ENE,63,2.0,3.0,29,0.00,,,0.00,Wunderground v.1.15,2013-10-31 17:10:00,
2013-10-31 10:20:00,63.2,29.5,30.13,NE,53,2.0,4.0,28,0.00,,,0.00,Wunderground v.1.15,2013-10-31 17:20:00,
2013-10-31 10:30:00,64.2,29.5,30.13,SE,129,2.0,2.0,27,0.00,,,0.00,Wunderground v.1.15,2013-10-31 17:30:00,
2013-10-31 10:40:00,65.0,29.2,30.13,ESE,111,2.0,2.0,26,0.00,,,0.00,Wunderground v.1.15,2013-10-31 17:40:00,
2013-10-31 10:50:00,65.3,29.5,30.12,SE,143,1.0,2.0,26,0.00,,,0.00,Wunderground v.1.15,2013-10-31 17:50:00,
2013-10-31 11:00:00,65.9,28.1,30.12,SE,139,2.0,2.0,24,0.00,,,0.00,Wunderground v.1.15,2013-10-31 18:00:00,
2013-10-31 11:10:00,66.8,30.8,30.12,ESE,117,2.0,2.0,26,0.00,,,0.00,Wunderground v.1.15,2013-10-31 18:10:00,
2013-10-31 11:15:00,67.3,30.2,30.11,ESE,110,1.0,3.0,25,0.00,,,0.00,Wunderground v.1.15,2013-10-31 18:15:00,
2013-10-31 11:25:00,67.7,29.6,30.11,South,189,2.0,3.0,24,0.00,,,0.00,Wunderground v.1.15,2013-10-31 18:25:00,
2013-10-31 11:35:00,68.1,28.9,30.10,SE,136,2.0,4.0,23,0.00,,,0.00,Wunderground v.1.15,2013-10-31 18:35:00,
2013-10-31 11:45:00,68.7,29.4,30.10,SE,142,3.0,3.0,23,0.00,,,0.00,Wunderground v.1.15,2013-10-31 18:45:00,
2013-10-31 11:55:00,68.9,28.5,30.09,ESE,122,2.0,5.0,22,0.00,,,0.00,Wunderground v.1.15,2013-10-31 18:55:00,
2013-10-31 12:00:00,69.1,28.6,30.09,South,186,2.0,2.0,22,0.00,,,0.00,Wunderground v.1.15,2013-10-31 19:00:00,
2013-10-31 12:10:00,70.4,28.6,30.08,SE,131,1.0,2.0,21,0.00,,,0.00,Wunderground v.1.15,2013-10-31 19:10:00,
2013-10-31 12:20:00,70.5,28.7,30.08,SE,124,3.0,4.0,21,0.00,,,0.00,Wunderground v.1.15,2013-10-31 19:20:00,
2013-10-31 12:30:00,70.2,28.4,30.07,ESE,104,3.0,4.0,21,0.00,,,0.00,Wunderground v.1.15,2013-10-31 19:30:00,
2013-10-31 12:35:00,70.0,28.2,30.07,SE,131,3.0,5.0,21,0.00,,,0.00,Wunderground v.1.15,2013-10-31 19:35:00,
2013-10-31 12:45:00,70.2,28.4,30.06,SSE,160,4.0,4.0,21,0.00,,,0.00,Wunderground v.1.15,2013-10-31 19:45:00,
2013-10-31 12:55:00,70.9,29.0,30.05,SE,129,3.0,7.0,21,0.00,,,0.00,Wunderground v.1.15,2013-10-31 19:55:00,
2013-10-31 13:00:00,71.4,28.2,30.05,ESE,106,4.0,4.0,20,0.00,,,0.00,Wunderground v.1.15,2013-10-31 20:00:00,
2013-10-31 13:10:00,72.2,26.3,30.04,SE,136,3.0,3.0,18,0.00,,,0.00,Wunderground v.1.15,2013-10-31 20:10:00,
2013-10-31 13:20:00,72.7,25.3,30.04,SE,124,2.0,5.0,17,0.00,,,0.00,Wunderground v.1.15,2013-10-31 20:20:00,
2013-10-31 13:30:00,72.0,24.8,30.03,East,95,4.0,4.0,17,0.00,,,0.00,Wunderground v.1.15,2013-10-31 20:30:00,
2013-10-31 13:40:00,71.8,24.6,30.03,ESE,112,4.0,4.0,17,0.00,,,0.00,Wunderground v.1.15,2013-10-31 20:40:00,
2013-10-31 13:50:00,71.4,22.8,30.03,SE,145,4.0,4.0,16,0.00,,,0.00,Wunderground v.1.15,2013-10-31 20:50:00,
2013-10-31 13:55:00,72.0,24.8,30.03,East,89,3.0,8.0,17,0.00,,,0.00,Wunderground v.1.15,2013-10-31 20:55:00,
2013-10-31 14:00:00,72.5,23.7,30.02,ESE,113,3.0,3.0,16,0.00,,,0.00,Wunderground v.1.15,2013-10-31 21:00:00,
2013-10-31 14:10:00,73.0,24.1,30.02,ENE,58,4.0,4.0,16,0.00,,,0.00,Wunderground v.1.15,2013-10-31 21:10:00,
2013-10-31 14:20:00,73.2,24.3,30.02,ESE,117,4.0,4.0,16,0.00,,,0.00,Wunderground v.1.15,2013-10-31 21:20:00,
2013-10-31 14:30:00,73.1,25.7,30.02,NNE,25,3.0,4.0,17,0.00,,,0.00,Wunderground v.1.15,2013-10-31 21:30:00,
2013-10-31 14:40:00,73.5,19.6,30.02,ENE,70,4.0,4.0,13,0.00,,,0.00,Wunderground v.1.15,2013-10-31 21:40:00,
2013-10-31 14:50:00,73.3,17.6,30.02,ESE,119,4.0,6.0,12,0.00,,,0.00,Wunderground v.1.15,2013-10-31 21:50:00,
2013-10-31 15:00:00,73.5,17.7,30.02,ENE,63,4.0,5.0,12,0.00,,,0.00,Wunderground v.1.15,2013-10-31 22:00:00,
2013-10-31 15:10:00,73.7,15.9,30.01,ENE,63,5.0,5.0,11,0.00,,,0.00,Wunderground v.1.15,2013-10-31 22:10:00,
2013-10-31 15:20:00,73.9,18.0,30.01,SSE,149,4.0,4.0,12,0.00,,,0.00,Wunderground v.1.15,2013-10-31 22:20:00,
2013-10-31 15:25:00,73.6,17.8,30.01,ESE,106,4.0,4.0,12,0.00,,,0.00,Wunderground v.1.15,2013-10-31 22:25:00,
2013-10-31 15:35:00,73.8,13.8,30.01,East,79,4.0,7.0,10,0.00,,,0.00,Wunderground v.1.15,2013-10-31 22:35:00,
2013-10-31 15:45:00,73.9,13.8,30.01,ESE,114,4.0,4.0,10,0.00,,,0.00,Wunderground v.1.15,2013-10-31 22:45:00,
2013-10-31 15:55:00,74.0,11.5,30.01,East,93,3.0,8.0,9,0.00,,,0.00,Wunderground v.1.15,2013-10-31 22:55:00,
2013-10-31 16:00:00,74.0,16.1,30.01,ENE,70,4.0,6.0,11,0.00,,,0.00,Wunderground v.1.15,2013-10-31 23:00:00,
2013-10-31 16:10:00,73.4,19.5,30.01,East,92,4.0,5.0,13,0.00,,,0.00,Wunderground v.1.15,2013-10-31 23:10:00,
2013-10-31 16:15:00,73.2,21.1,30.00,ENE,76,4.0,6.0,14,0.00,,,0.00,Wunderground v.1.15,2013-10-31 23:15:00,
2013-10-31 16:25:00,73.3,22.8,30.00,ESE,120,4.0,5.0,15,0.00,,,0.00,Wunderground v.1.15,2013-10-31 23:25:00,
2013-10-31 16:35:00,72.7,23.9,30.01,SE,129,4.0,5.0,16,0.00,,,0.00,Wunderground v.1.15,2013-10-31 23:35:00,
2013-10-31 16:45:00,72.6,23.8,30.00,ENE,58,4.0,5.0,16,0.00,,,0.00,Wunderground v.1.15,2013-10-31 23:45:00,
2013-10-31 16:55:00,72.0,23.3,30.00,East,82,4.0,9.0,16,0.00,,,0.00,Wunderground v.1.15,2013-10-31 23:55:00,
2013-10-31 17:00:00,71.5,22.9,30.00,ESE,122,4.0,4.0,16,0.00,,,0.00,Wunderground v.1.15,2013-11-01 00:00:00,
2013-10-31 17:10:00,70.9,22.4,30.00,ESE,105,4.0,4.0,16,0.00,,,0.00,Wunderground v.1.15,2013-11-01 00:10:00,
2013-10-31 17:20:00,69.4,22.7,30.00,ESE,102,2.0,2.0,17,0.00,,,0.00,Wunderground v.1.15,2013-11-01 00:20:00,
2013-10-31 17:25:00,68.7,22.1,30.00,NE,48,2.0,4.0,17,0.00,,,0.00,Wunderground v.1.15,2013-11-01 00:25:00,
2013-10-31 17:30:00,68.1,21.6,30.00,ESE,106,2.0,2.0,17,0.00,,,0.00,Wunderground v.1.15,2013-11-01 00:30:00,
2013-10-31 17:35:00,67.6,21.2,30.00,SE,124,3.0,3.0,17,0.00,,,0.00,Wunderground v.1.15,2013-11-01 00:35:00,
2013-10-31 17:40:00,67.1,20.8,30.01,ESE,107,2.0,2.0,17,0.00,,,0.00,Wunderground v.1.15,2013-11-01 00:40:00,
2013-10-31 17:45:00,66.7,21.8,30.01,ESE,103,2.0,2.0,18,0.00,,,0.00,Wunderground v.1.15,2013-11-01 00:45:00,
2013-10-31 17:50:00,66.2,21.4,30.01,ESE,119,2.0,2.0,18,0.00,,,0.00,Wunderground v.1.15,2013-11-01 00:50:00,
2013-10-31 18:00:00,64.9,21.6,30.01,ESE,108,1.0,2.0,19,0.00,,,0.00,Wunderground v.1.15,2013-11-01 01:00:00,
2013-10-31 18:10:00,64.8,22.7,30.01,ESE,103,2.0,2.0,20,0.00,,,0.00,Wunderground v.1.15,2013-11-01 01:10:00,
2013-10-31 18:20:00,64.4,23.6,30.02,ESE,103,2.0,2.0,21,0.00,,,0.00,Wunderground v.1.15,2013-11-01 01:20:00,
2013-10-31 18:29:00,64.2,24.5,30.02,ESE,122,2.0,2.0,22,0.00,,,0.00,Wunderground v.1.15,2013-11-01 01:29:00,
2013-10-31 18:35:00,64.0,25.4,30.02,ESE,111,2.0,2.0,23,0.00,,,0.00,Wunderground v.1.15,2013-11-01 01:35:00,
2013-10-31 18:45:00,63.4,24.9,30.02,East,89,2.0,2.0,23,0.00,,,0.00,Wunderground v.1.15,2013-11-01 01:45:00,
2013-10-31 18:55:00,62.6,26.2,30.02,ESE,113,1.0,4.0,25,0.00,,,0.00,Wunderground v.1.15,2013-11-01 01:55:00,
2013-10-31 19:00:00,61.9,25.7,30.02,ESE,113,1.0,1.0,25,0.00,,,0.00,Wunderground v.1.15,2013-11-01 02:00:00,
2013-10-31 19:09:00,60.0,24.0,30.03,SE,132,0.0,0.0,25,0.00,,,0.00,Wunderground v.1.15,2013-11-01 02:09:00,
2013-10-31 19:20:00,56.9,24.1,30.03,SE,135,0.0,0.0,28,0.00,,,0.00,Wunderground v.1.15,2013-11-01 02:20:00,
2013-10-31 19:25:00,55.9,24.1,30.03,SE,135,0.0,0.0,29,0.00,,,0.00,Wunderground v.1.15,2013-11-01 02:25:00,
2013-10-31 19:35:00,54.6,24.5,30.03,SE,135,0.0,0.0,31,0.00,,,0.00,Wunderground v.1.15,2013-11-01 02:35:00,
2013-10-31 19:44:00,53.7,24.5,30.03,SE,135,0.0,0.0,32,0.00,,,0.00,Wunderground v.1.15,2013-11-01 02:44:00,
2013-10-31 19:54:00,53.2,24.1,30.04,SE,135,0.0,4.0,32,0.00,,,0.00,Wunderground v.1.15,2013-11-01 02:54:00,
2013-10-31 20:00:00,52.8,23.7,30.04,SE,142,0.0,0.0,32,0.00,,,0.00,Wunderground v.1.15,2013-11-01 03:00:00,
2013-10-31 20:05:00,51.8,22.8,30.04,SE,142,0.0,0.0,32,0.00,,,0.00,Wunderground v.1.15,2013-11-01 03:05:00,
2013-10-31 20:15:00,51.1,23.7,30.04,SE,142,0.0,0.0,34,0.00,,,0.00,Wunderground v.1.15,2013-11-01 03:15:00,
2013-10-31 20:25:00,51.2,23.8,30.05,SE,143,0.0,0.0,34,0.00,,,0.00,Wunderground v.1.15,2013-11-01 03:25:00,
2013-10-31 20:34:00,50.3,23.7,30.05,SE,142,0.0,0.0,35,0.00,,,0.00,Wunderground v.1.15,2013-11-01 03:34:00,
2013-10-31 20:40:00,49.9,24.0,30.05,SE,142,0.0,0.0,36,0.00,,,0.00,Wunderground v.1.15,2013-11-01 03:40:00,
2013-10-31 20:50:00,49.6,24.4,30.06,SE,143,0.0,0.0,37,0.00,,,0.00,Wunderground v.1.15,2013-11-01 03:50:00,
2013-10-31 21:00:00,50.2,24.9,30.06,SE,142,0.0,0.0,37,0.00,,,0.00,Wunderground v.1.15,2013-11-01 04:00:00,
2013-10-31 21:04:00,50.4,25.7,30.06,SE,143,0.0,0.0,38,0.00,,,0.00,Wunderground v.1.15,2013-11-01 04:04:00,
2013-10-31 21:14:00,50.1,23.5,30.06,SE,143,0.0,0.0,35,0.00,,,0.00,Wunderground v.1.15,2013-11-01 04:14:00,
2013-10-31 21:19:00,49.4,24.8,30.07,SE,142,0.0,0.0,38,0.00,,,0.00,Wunderground v.1.15,2013-11-01 04:19:00,
2013-10-31 21:24:00,49.3,24.7,30.07,SE,142,0.0,0.0,38,0.00,,,0.00,Wunderground v.1.15,2013-11-01 04:24:00,
2013-10-31 21:29:00,49.5,24.9,30.07,SE,142,0.0,0.0,38,0.00,,,0.00,Wunderground v.1.15,2013-11-01 04:29:00,
2013-10-31 21:34:00,49.4,25.4,30.07,SE,143,0.0,0.0,39,0.00,,,0.00,Wunderground v.1.15,2013-11-01 04:34:00,
2013-10-31 21:40:00,48.7,22.9,30.07,SE,142,0.0,0.0,36,0.00,,,0.00,Wunderground v.1.15,2013-11-01 04:40:00,
2013-10-31 21:45:00,47.9,24.1,30.07,SE,142,0.0,0.0,39,0.00,,,0.00,Wunderground v.1.15,2013-11-01 04:45:00,
2013-10-31 21:54:00,46.6,23.5,30.08,SSE,150,0.0,0.0,40,0.00,,,0.00,Wunderground v.1.15,2013-11-01 04:54:00,
2013-10-31 22:00:00,46.8,24.3,30.08,SSE,150,0.0,0.0,41,0.00,,,0.00,Wunderground v.1.15,2013-11-01 05:00:00,
2013-10-31 22:09:00,46.3,23.9,30.08,SSE,150,0.0,0.0,41,0.00,,,0.00,Wunderground v.1.15,2013-11-01 05:09:00,
2013-10-31 22:14:00,46.1,24.8,30.08,SSE,150,0.0,0.0,43,0.00,,,0.00,Wunderground v.1.15,2013-11-01 05:14:00,
2013-10-31 22:20:00,46.1,24.8,30.08,SSE,149,0.0,0.0,43,0.00,,,0.00,Wunderground v.1.15,2013-11-01 05:20:00,
2013-10-31 22:30:00,46.0,24.2,30.09,SSE,149,0.0,0.0,42,0.00,,,0.00,Wunderground v.1.15,2013-11-01 05:30:00,
2013-10-31 22:39:00,44.1,23.6,30.09,SSE,149,0.0,0.0,44,0.00,,,0.00,Wunderground v.1.15,2013-11-01 05:39:00,
2013-10-31 22:49:00,43.9,22.8,30.10,SSE,149,0.0,0.0,43,0.00,,,0.00,Wunderground v.1.15,2013-11-01 05:49:00,
2013-10-31 22:54:00,43.9,23.9,30.09,SSE,150,0.0,0.0,45,0.00,,,0.00,Wunderground v.1.15,2013-11-01 05:54:00,
2013-10-31 23:00:00,43.7,22.6,30.09,SSE,149,0.0,0.0,43,0.00,,,0.00,Wunderground v.1.15,2013-11-01 06:00:00,
2013-10-31 23:10:00,43.5,21.9,30.09,SSE,149,0.0,0.0,42,0.00,,,0.00,Wunderground v.1.15,2013-11-01 06:10:00,
2013-10-31 23:19:00,44.0,22.4,30.09,SSE,150,0.0,0.0,42,0.00,,,0.00,Wunderground v.1.15,2013-11-01 06:19:00,
2013-10-31 23:29:00,45.8,23.4,30.09,SSE,150,0.0,0.0,41,0.00,,,0.00,Wunderground v.1.15,2013-11-01 06:29:00,
2013-10-31 23:40:00,46.6,21.0,30.09,SSE,149,0.0,0.0,36,0.00,,,0.00,Wunderground v.1.15,2013-11-01 06:40:00,
2013-10-31 23:50:00,42.9,21.4,30.09,SSE,148,0.0,0.0,42,0.00,,,0.00,Wunderground v.1.15,2013-11-01 06:50:00,